#timestamp,LO_Frequency,Hit,StdDev 
1666598415.3,286046999.4,N
1666598435.2,286046997.8,N
1666598455.0,286046997.2,N
1666598455.9,286046997.2,N
1666598475.8,286046996.7,N
1666598495.6,286046998.0,N
1666598515.4,286046996.9,N
1666598535.3,286046999.6,N
1666598555.1,286046998.5,N
1666598575.9,286046998.6,N
1666598595.7,286046998.4,N
1666598615.5,286046999.0,N
1666598635.4,286046998.0,N
1666598655.2,286046997.0,N
1666598675.0,286046997.4,N
1666598675.9,286046997.4,N
1666598695.8,286046996.1,N
1666598715.6,286046994.0,Y
1666598735.5,286046996.6,P
1666598755.3,286046998.7,N
1666598775.1,286047001.1,N
1666598795.9,286047002.3,N
1666598815.7,286047002.3,N
1666598835.5,286047000.5,N
1666598855.4,286047000.2,N
1666598875.2,286046999.7,N
1666598895.1,286047001.7,N
1666598896.0,286047001.7,N
1666598915.8,286047003.7,N
1666598935.6,286047003.9,N
1666598955.5,286047004.4,N
1666598975.3,286047002.3,N
1666598995.1,286047001.1,N
1666599015.9,286046999.9,N
1666599035.7,286047001.9,N
1666599055.6,286047000.9,N
1666599075.4,286046999.3,N
1666599095.2,286046998.4,N
1666599115.1,286046998.9,N
1666599116.0,286046998.9,N
1666599135.8,286047000.4,N
1666599155.7,286047002.1,N
1666599175.5,286047001.6,N
1666599195.3,286047001.9,N
1666599215.2,286047002.4,N
1666599235.9,286046998.5,N
1666599255.7,286047000.9,N
1666599275.6,286046998.8,N
1666599295.4,286047000.9,N
1666599315.3,286047002.1,N
1666599335.1,286047002.2,N
1666599336.0,286047002.2,N
1666599355.8,286047001.9,N
1666599375.7,286047004.0,N
1666599395.5,286047004.0,N
1666599415.3,286047003.3,N
1666599435.2,286047003.8,N
1666599455.0,286047001.6,N
1666599455.9,286047001.6,N
1666599475.8,286047003.8,N
1666599495.6,286047004.2,N
1666599515.4,286047004.2,N
1666599535.3,286047003.2,N
1666599555.1,286047003.3,N
1666599575.8,286047005.4,Y
1666599595.7,286047004.2,P
1666599615.5,286047003.6,N
1666599635.4,286047005.9,P
1666599655.2,286047003.0,N
1666599675.0,286047003.4,N
1666599675.9,286047003.4,N
1666599695.8,286047003.3,N
1666599715.6,286047004.1,Y
1666599735.5,286047000.9,P
1666599755.3,286046998.9,N
1666599775.1,286046996.6,N
1666599795.9,286046999.4,N
1666599815.7,286046996.6,N
1666599835.5,286046996.5,N
1666599855.4,286046996.7,N
1666599875.2,286046996.5,N
1666599895.1,286046998.4,N
1666599896.0,286046998.4,N
1666599915.8,286046998.5,N
1666599935.6,286046999.0,N
1666599955.5,286046998.8,N
1666599975.3,286046998.9,N
1666599995.1,286046998.7,N
1666600015.9,286046999.0,N
1666600035.7,286046998.9,N
1666600055.6,286046999.2,N
1666600075.4,286046997.4,N
1666600095.2,286046995.5,N
1666600115.1,286046994.9,N
1666600116.0,286046994.9,N
1666600135.8,286046995.1,N
1666600155.6,286046996.0,N
1666600175.5,286046993.7,Y
1666600195.3,286046997.9,P
1666600215.2,286046995.2,P
1666600235.9,286046995.1,P
1666600255.7,286046995.5,Y
1666600275.6,286046998.6,P
1666600295.4,286046998.4,N
1666600315.3,286046999.4,N
1666600335.1,286046999.2,N
1666600336.0,286046999.2,N
1666600355.8,286046996.7,Y
1666600375.7,286046998.2,P
1666600395.5,286046998.6,P
1666600415.3,286046998.3,P
1666600435.2,286046999.4,Y
1666600455.0,286046999.7,P
1666600455.9,286046999.7,N
1666600475.8,286046999.8,N
1666600495.6,286047002.6,Y
1666600515.4,286047002.2,P
1666600535.3,286047002.4,N
1666600555.1,286047002.2,N
1666600575.9,286047002.4,N
1666600595.7,286047000.1,N
1666600615.5,286046999.7,N
1666600635.4,286047002.6,N
1666600655.2,286047002.5,N
1666600675.0,286047002.5,N
1666600676.0,286047002.5,N
1666600695.8,286046999.8,N
1666600715.6,286047000.4,N
1666600735.5,286047000.3,N
1666600755.3,286047000.8,N
1666600775.1,286047000.6,N
1666600795.9,286046998.7,N
1666600815.7,286046998.8,N
1666600835.6,286046996.6,N
1666600855.4,286046997.4,N
1666600875.2,286046996.7,N
1666600895.1,286046997.5,N
1666600896.0,286046997.5,N
1666600915.8,286046997.4,N
1666600935.7,286046996.9,N
1666600955.5,286046997.3,N
1666600975.3,286046997.7,N
1666600995.2,286046997.2,N
1666601015.0,286046999.2,N
1666601015.9,286046999.2,N
1666601035.8,286046998.8,N
1666601055.6,286046997.0,N
1666601075.4,286046997.1,N
1666601095.3,286046996.6,N
1666601115.1,286046996.5,N
1666601135.5,286046997.1,N
1666601155.3,286046997.2,N
1666601175.2,286046999.1,N
1666601195.9,286046997.0,N
1666601215.7,286046997.0,N
1666601235.6,286046997.5,N
1666601255.4,286046996.7,N
1666601275.2,286046997.0,N
1666601295.1,286046995.2,Y
1666601296.0,286046995.2,P
1666601315.8,286046996.9,N
1666601335.7,286046999.6,N
1666601355.5,286046999.4,N
1666601375.3,286046999.0,N
1666601395.2,286046996.9,N
1666601415.0,286046997.0,N
1666601415.9,286046997.0,N
1666601435.7,286046997.0,N
1666601455.6,286046996.8,N
1666601475.4,286046999.0,N
1666601495.3,286047001.2,N
1666601515.1,286046998.5,N
1666601516.0,286046998.5,N
1666601535.8,286046999.4,N
1666601555.7,286046999.5,N
1666601575.5,286046996.9,N
1666601595.3,286046996.6,N
1666601615.2,286046999.5,N
1666601635.0,286046997.0,N
1666601635.9,286046997.0,N
1666601655.8,286046997.4,N
1666601675.6,286046995.0,Y
1666601695.4,286047001.2,P
1666601715.3,286046998.7,N
1666601735.1,286046998.8,N
1666601755.9,286046998.8,N
1666601775.7,286046998.3,N
1666601795.5,286046998.8,N
1666601815.4,286046998.6,N
1666601835.2,286046998.3,N
1666601855.0,286046998.9,N
1666601855.9,286046998.9,N
1666601875.8,286046998.4,N
1666601895.6,286047000.7,N
1666601915.5,286047001.1,N
1666601935.3,286047001.2,N
1666601955.1,286047000.5,N
1666601975.9,286047000.7,N
1666601995.7,286046999.0,N
